Regional Weather Roundup
Issued by NWS

Home | Current Version | Previous Version | Text Only | Print | Product List | Glossary Off
Versions: 1 2 3 4 5 6 7 8 9 10 11 12 13 14 15 16 17 18 19 20 21 22 23 24 25 26 27 28 29 30 31 32 33 34 35 36 37 38 39 40 41 42 43 44 45 46 47 48 49 50

000
ASUS43 KIND 012159
RWRIN

WEATHER ROUNDUP FOR INDIANA
NATIONAL WEATHER SERVICE INDIANAPOLIS IN
500 PM EST SUN FEB 01 2015

NOTE: "FAIR" INDICATES FEW OR NO CLOUDS BELOW 12,000 FEET WITH NO
SIGNIFICANT WEATHER AND/OR OBSTRUCTIONS TO VISIBILITY.

* - STATION DOES NOT REPORT WEATHER SUCH AS PRECIPITATION OR FOG.

+ - STATION NOT QUALITY CONTROLLED BY THE NATIONAL WEATHER SERVICE.
    USE DATA WITH CAUTION...ESPECIALLY DEWPOINT AND RELATIVE
    HUMIDITY OBSERVATIONS.

INZ001>003-010>013-019-020-012300-
NORTHWEST INDIANA

CITY           SKY/WX    TMP DP  RH WIND       PRES   REMARKS
VALPARAISO     NOT AVBL

$$

LMZ046-743>745-012300-
SOUTHERN LAKE MICHIGAN

STATION/POSITION TIME  TEMP WIND        PRES
                       AIR  DIR/SP/G
                 (UTC) (F)  (DEG/KT/KT) (MB)
MICHIGAN CITY    2100   24   40/ 22/ 25   N/A

$$

INZ004-005-014>016-021>024-012300-
NORTH CENTRAL INDIANA

CITY           SKY/WX    TMP DP  RH WIND       PRES   REMARKS
GOSHEN         SNOW      25  21  85 NE14      29.69F VSB 1/4 WCI  13
SOUTH BEND     SNOW      23  20  88 NE15G22   29.70F VSB 1/2 WCI  10

$$

INZ006>009-017-018-025>027-012300-
NORTHEAST INDIANA

CITY           SKY/WX    TMP DP  RH WIND       PRES   REMARKS
ANGOLA *+      CLOUDY    21  19  93 E17       29.70F VSB 1/2 WCI   7
FORT WAYNE     SNOW      30  28  92 NE17      29.65F VSB 1/2 WCI  18

$$

INZ028-029-035-036-043>045-051>053-012300-
WEST CENTRAL INDIANA

CITY           SKY/WX    TMP DP  RH WIND       PRES   REMARKS
CRAWFORDSVL +  LGT SNOW  32  30  94 S3        29.58S
GREENCASTLE +  CLOUDY    34  32  93 CALM      29.59R FOG
LAFAYETTE      LGT SNOW  32  32 100 N3        29.59F FOG
TERRE HAUTE    LGT RAIN  37  36  96 W5        29.59S FOG

$$

INZ030>032-037>040-046>048-054>057-064-065-012300-
CENTRAL INDIANA

CITY           SKY/WX    TMP DP  RH WIND       PRES   REMARKS
INDIANAPOLIS   LGT RAIN  33  33 100 E3        29.57F VSB 1
-EAGLE CREEK   LGT RAIN  34  34 100 SE3       29.56F VSB 1
KOKOMO *+      CLOUDY    34  30  86 E7        29.59F WCI  28
MT COMFORT *+  CLOUDY    36 N/A N/A CALM      29.58F VSB 1/2
SHELBYVILLE    LGT RAIN  42  39  89 S10       29.57F FOG

$$

INZ033-034-041-042-049-050-058-059-012300-
EAST CENTRAL INDIANA

CITY           SKY/WX    TMP DP  RH WIND       PRES   REMARKS
MUNCIE         LGT RAIN  34  33  96 E5        29.58F FOG     WCI  30

$$

INZ060-061-067>069-081>083-085>088-012300-
SOUTHWEST INDIANA

CITY           SKY/WX    TMP DP  RH WIND       PRES   REMARKS
EVANSVILLE     LGT RAIN  48  45  89 SW12      29.62S FOG
HUNTINGBURG *+ CLOUDY    46  43  87 SW14      29.60F

$$

INZ062-063-066-070>080-084-089>092-012300-
SOUTH CENTRAL AND SOUTHEAST INDIANA

CITY           SKY/WX    TMP DP  RH WIND       PRES   REMARKS
BLOOMINGTON    LGT RAIN  43  42  97 SW12      29.57S FOG
SEYMOUR +      RAIN      45  45 100 S7        29.59F

$$




USA.gov is the U.S. government's official web portal to all federal, state and local government web resources and services.